Weather History for Milk River, Alberta

Change the Weather History Date:

Monday, April 14, 2014

  Actual Average Record
Temperature  
Mean Temperature 38 °F -  
Max Temperature 59 °F - - ()
Min Temperature 18 °F - - ()
Degree Days  
Heating Degree Days 26    
Moisture  
Dew Point 16 °F    
Average Humidity 47    
Maximum Humidity 86    
Minimum Humidity 10    
Precipitation  
Precipitation 0.66 in - - ()
Sea Level Pressure  
Sea Level Pressure 30.11 in    
Wind  
Wind Speed 5 mph ()    
Max Wind Speed 14 mph    
Max Gust Speed 20 mph    
T = Trace of Precipitation, MM = Missing Value Source: Averaged Metar Reports

Daily Weather History Graph

Daily Weather History Graph

Search for Another Location

Airport:

Trip Planner

Search our weather history database for the weather conditions in past years. The results will help you decide how hot, cold, wet, or windy it might be!

Date:

Astronomy

Apr. 14, 2014 Rise Set
Actual Time 6:38 AM MDT 8:19 PM MDT
Civil Twilight 6:05 AM MDT 8:52 PM MDT
Nautical Twilight 5:24 AM MDT 9:33 PM MDT
Astronomical Twilight 4:39 AM MDT 10:18 PM MDT
Moon 8:01 PM MDT (4/14) 6:16 AM MDT (4/14)
Length of Visible Light 14h 47m
Length of Day
13h 40m
Full, 100% of the Moon is Illuminated
Apr 14
Full
Apr 15
Full
Apr 22
Last Quarter
Apr 29
New
May 6
First Quarter

Hourly Weather History & Observations

Time (MDT) Temp. Windchill Dew Point Humidity Pressure Visibility Wind Dir Wind Speed Gust Speed Precip Events Conditions
12:00 AM 20 °F - 16 °F 79% 30.37 in - Calm Calm - -  
12:00 AM 20.3 °F - 16.3 °F 85% 30.37 in - Calm Calm - N/A   Unknown
1:00 AM 19.6 °F - 16.0 °F 86% 30.35 in - ESE 1.2 mph - N/A   Unknown
2:00 AM 19.2 °F 12.5 °F 15.1 °F 84% 30.33 in - South 4.6 mph - N/A   Unknown
3:00 AM 20.8 °F 10.4 °F 16.0 °F 81% 30.30 in - South 9.2 mph - N/A   Unknown
4:00 AM 22.6 °F 15.3 °F 15.8 °F 75% 30.27 in - SSW 5.8 mph - N/A   Unknown
5:00 AM 22.1 °F 17.4 °F 15.4 °F 76% 30.25 in - WSW 3.5 mph - N/A   Unknown
6:00 AM 22 °F - 15 °F 66% 30.24 in - SW 4.6 mph - -  
6:00 AM 21.6 °F 15.3 °F 15.4 °F 77% 30.24 in - SW 4.6 mph - N/A   Unknown
7:00 AM 20.1 °F 12.3 °F 16.5 °F 86% 30.23 in - SSW 5.8 mph - N/A   Unknown
8:00 AM 26.6 °F 20.0 °F 18.3 °F 71% 30.22 in - SSW 5.8 mph - N/A   Unknown
9:00 AM 33.4 °F 28.1 °F 22.1 °F 63% 30.21 in - SSW 5.8 mph - N/A   Unknown
10:00 AM 42.3 °F - 20.5 °F 42% 30.17 in - WSW 2.3 mph - N/A   Unknown
11:00 AM 50.0 °F - 17.4 °F 28% 30.14 in - West 11.5 mph - N/A   Unknown
12:00 PM 53 °F - 12 °F 10% 30.12 in - WNW 10.4 mph - -  
12:00 PM 52.9 °F - 12.4 °F 20% 30.12 in - WNW 10.4 mph - N/A   Unknown
1:00 PM 54.0 °F - 13.5 °F 20% 30.09 in - WNW 13.8 mph - N/A   Unknown
2:00 PM 55.8 °F - 9.1 °F 16% 30.06 in - WNW 13.8 mph 19.6 mph N/A   Unknown
3:00 PM 57.2 °F - 12.2 °F 17% 30.03 in - WNW 12.7 mph 18.4 mph N/A   Unknown
4:00 PM 57.9 °F - 11.1 °F 16% 29.99 in - WNW 11.5 mph 17.3 mph N/A   Unknown
5:00 PM 58.3 °F - 12.7 °F 17% 29.95 in - WNW 9.2 mph 17.3 mph N/A   Unknown
6:00 PM 56 °F - 15 °F 10% 29.93 in - WNW 10.4 mph - -  
6:00 PM 55.9 °F - 14.5 °F 20% 29.93 in - WNW 10.4 mph - N/A   Unknown
7:00 PM 57.0 °F - 14.9 °F 19% 29.90 in - West 9.2 mph - N/A   Unknown
8:00 PM 50.0 °F - 16.0 °F 26% 29.88 in - West 9.2 mph - N/A   Unknown
9:00 PM 43.9 °F 38.8 °F 17.6 °F 35% 29.87 in - West 9.2 mph - N/A   Unknown
10:00 PM 40.1 °F 36.1 °F 20.5 °F 45% 29.84 in - West 5.8 mph - N/A   Unknown
11:00 PM 41.7 °F - 19.4 °F 41% 29.79 in - NW 1.2 mph - N/A   Unknown